Regional Weather Roundup
Issued by NWS

Home | Current Version | Previous Version | Graphics & Text | Print | Product List | Glossary On
Versions: 1 2 3 4 5 6 7 8 9 10 11 12 13 14 15 16 17 18 19 20 21 22 23 24 25 26 27 28 29 30 31 32 33 34 35 36 37 38 39 40 41 42 43 44 45 46 47 48 49 50
000
ASUS45 KBOI 210210
RWRID

IDAHO REGIONAL WEATHER ROUNDUP
NATIONAL WEATHER SERVICE BOISE ID
800 PM MDT SUN MAY 20 2018

NOTE: "FAIR" INDICATES FEW OR NO CLOUDS BELOW 12000 FEET
WITH NO SIGNIFICANT WEATHER AND/OR OBSTRUCTIONS TO VISIBILITY

IDZ012-014-210300-
SOUTHWEST IDAHO


CITY           SKY/WX    TMP DP  RH WIND       PRES   REMARKS
BOISE          PTSUNNY   69  50  50 W9G20     29.84R
CALDWELL       PTSUNNY   68  47  46 W12       29.84R
MOUNTAIN HOME  CLOUDY    67  54  63 SW8       29.86R
$$

IDZ016-017-210300-
SOUTHCENTRAL IDAHO


CITY           SKY/WX    TMP DP  RH WIND       PRES   REMARKS
BURLEY         CLOUDY    60  51  72 S3        29.89R
JEROME         MOCLDY    62  50  64 SE3       29.90S
TWIN FALLS     CLOUDY    57  49  74 S10       29.89F
$$

IDZ019>023-210300-
SOUTHEAST IDAHO


CITY           SKY/WX    TMP DP  RH WIND       PRES   REMARKS
IDAHO FALLS    LGT RAIN  59  48  67 W15       29.96R
POCATELLO      MOCLDY    60  51  72 SW13      29.94R
REXBURG        LGT RAIN  55  48  77 N14G22    29.90F
$$

IDZ006-010-011-018-031-032-210300-
CENTRAL IDAHO MOUNTAINS


CITY           SKY/WX    TMP DP  RH WIND       PRES   REMARKS
MCCALL         CLOUDY    56  46  69 E3        29.90S
HAILEY         MOCLDY    55  48  76 W5        29.96F
STANLEY          N/A     47  45  93 S3        30.00F
SALMON         MOCLDY    63  48  59 CALM      29.89R
CHALLIS        LGT RAIN  56  48  74 N6        29.95S
$$

IDZ002-004-006-007-026-210300-
NORTHERN IDAHO


CITY           SKY/WX    TMP DP  RH WIND       PRES   REMARKS
LEWISTON       CLOUDY    68  54  60 NE9       29.86R
LOWELL           N/A     63  58  83 CALM      29.84F
COEUR D`ALENE  MOSUNNY   72  45  37 SW8       29.86R
MULLAN PASS    CLOUDY    51  42  71 CALM      30.00S
$$



USA.gov is the U.S. government's official web portal to all federal, state and local government web resources and services.